Starlink 33788

operational
NORAD ID: 63589 Int'l Des: 2025-076 Owner: SPXS Country: US Constellation: starlink
LEOCIRCULAR

Über Starlink 33788

Beschreibung wird geladen...

Live-Position

3D-Globus wird geladen...

Nächste Überflüge

Höhenverlauf

Altitude vs Time

uPlot chart will show altitude changes over time

Zweizeiliger Elementsatz

1 63589U 25076W 26036.29686844 .00056170 00000-0 20339-2 0 9993
2 63589 43.0009 144.8648 0002691 285.5618 74.4936 15.27598642 46874
Epoch: 5. Feb. 2026 • Age: 7 hours

Aktueller Status

Höhe 484.0 km
Geschwindigkeit 7.62 km/s
Subsatellitenpunkt -6.78°S, 18.7°W
Startdatum 14. Apr. 2025
Alter 0.8 years
Typ internet

Technische Details

Klassifizierung Payload
Masse 575.00 kg
Trockenmasse 530.00 kg
Gesamtmasse 575.00 kg
Länge 0.30 m
Durchmesser 4.10 m
Spannweite 29.00 m
Form Box + pan
Hersteller SPXS
Bus-Typ Starlink V2MO
Phasenstatus In Orbit
Besitzer/Staat SPXS/US

Große Konstellationen

Loading constellations...